Regional Weather Roundup
Issued by NWS Tiyan, Guam

Home | Current Version | Previous Version | Text Only | Print | Product List | Glossary On
Versions: 1 2 3 4 5 6 7 8 9 10 11 12 13 14 15 16 17 18 19 20 21 22 23 24 25 26 27 28
000
ASGM40 PGUM 181312
RWRGUM
WEATHER ROUNDUP FOR THE MARIANAS
NATIONAL WEATHER SERVICE TIYAN GU
1100 PM CHST MON DEC 18 2017

GUZ001>004-181400-
MARIANA ISLANDS-

CITY           SKY/WX    TMP DP  RH WIND       PRES   REMARKS
GUAM AIRPORT   MOCLDY    82  77  83 E15G28    29.86F HX  91
ANDERSEN AFB   MOCLDY    79  75  89 E20G26    29.87F
ROTA AIRPORT   NOT AVBL
TINIAN AP      NOT AVBL
SAIPAN AP      PTCLDY    82  75  78 E21G32    29.89F

$$





USA.gov is the U.S. government's official web portal to all federal, state and local government web resources and services.